| time (UTC) | temp C | wind direction | speed KPH | gust KPH | rain 1hr cm | rain 24hr cm | rain mn cm | humidity % | barometer mb |
| 20260510204250 | 12 | 49 | 0.0 | 0.0 | 0.00 | 0.99 | 0.99 | 76 | 994.3 |
| 20260510201241 | 13 | 49 | 0.0 | 0.0 | 0.00 | 0.99 | 0.99 | 73 | 993.0 |
| 20260510194231 | 13 | 49 | 0.0 | 0.0 | 0.00 | 0.99 | 0.99 | 72 | 993.0 |
| 20260510191222 | 15 | 49 | 0.0 | 0.0 | 0.00 | 0.99 | 0.99 | 68 | 992.0 |
| 20260510184213 | 16 | 78 | 0.0 | 0.0 | 0.00 | 0.99 | 0.99 | 56 | 992.0 |
| 20260510181204 | 23 | 35 | 0.0 | 0.0 | 0.10 | 0.99 | 0.99 | 33 | 992.0 |
| 20260510174157 | 19 | 63 | 0.0 | 9.7 | 0.10 | 0.99 | 0.99 | 31 | 992.0 |
| 20260510171147 | 17 | 98 | 0.0 | 0.0 | 0.00 | 1.30 | 0.89 | 67 | 991.0 |
| 20260510164140 | 18 | 15 | 0.0 | 0.0 | 0.00 | 1.30 | 0.89 | 57 | 991.0 |
| 20260510161131 | 18 | 319 | 0.0 | 0.0 | 0.00 | 1.30 | 0.89 | 45 | 991.0 |
| 20260510154121 | 21 | 308 | 0.0 | 0.0 | 0.00 | 1.30 | 0.89 | 35 | 991.0 |
| 20260510151111 | 20 | 337 | 0.0 | 0.0 | 0.00 | 1.30 | 0.89 | 39 | 991.0 |
| 20260510144101 | 19 | 337 | 0.0 | 4.8 | 0.00 | 1.30 | 0.89 | 40 | 991.0 |
| 20260510141052 | 20 | 337 | 0.0 | 0.0 | 0.00 | 1.30 | 0.89 | 47 | 1042.0 |
| 20260510134042 | 18 | 338 | 0.0 | 0.0 | 0.00 | 1.30 | 0.89 | 56 | 992.0 |
| 20260510131031 | 15 | 337 | 0.0 | 0.0 | 0.89 | 1.30 | 0.89 | 69 | 994.0 |
| 20260510124021 | 13 | 94 | 0.0 | 0.0 | 0.89 | 1.30 | 0.89 | 70 | 994.0 |
| 20260510121012 | 21 | 134 | 0.0 | 0.0 | 0.00 | 0.41 | 0.00 | 25 | 992.0 |
| 20260510114002 | 22 | 102 | 0.0 | 0.0 | 0.00 | 0.41 | 0.00 | 24 | 991.0 |
| 20260510110952 | 22 | 88 | 0.0 | 0.0 | 0.00 | 0.41 | 0.00 | 23 | 992.0 |
| 20260510103943 | 22 | 304 | 0.0 | 3.2 | 0.00 | 0.41 | 0.00 | 23 | 992.0 |
| 20260510100934 | 21 | 290 | 0.0 | 0.0 | 0.00 | 0.41 | 0.00 | 25 | 992.0 |
| 20260510093924 | 21 | 45 | 0.0 | 4.8 | 0.00 | 0.41 | 0.00 | 28 | 993.0 |
| 20260510090915 | 20 | 247 | 0.0 | 0.0 | 0.00 | 0.41 | 0.00 | 29 | 993.0 |
| 20260510083906 | 20 | 274 | 0.0 | 0.0 | 0.00 | 0.41 | 0.00 | 32 | 993.0 |
| 20260510080858 | 18 | 134 | 0.0 | 4.8 | 0.00 | 0.41 | 0.00 | 35 | 993.0 |
| 20260510073849 | 17 | 93 | 0.0 | 3.2 | 0.00 | 0.41 | 0.00 | 44 | 992.0 |
| 20260510070840 | 15 | 100 | 0.0 | 0.0 | 0.00 | 0.41 | 0.00 | 66 | 993.0 |
| 20260510063831 | 13 | 101 | 0.0 | 0.0 | 0.00 | 0.41 | 0.00 | 73 | 992.0 |
| 20260510060821 | 12 | 101 | 0.0 | 0.0 | 0.00 | 0.41 | 0.00 | 75 | 992.0 |
| 20260510053812 | 12 | 103 | 0.0 | 0.0 | 0.00 | 0.41 | 0.00 | 75 | 992.0 |
| 20260510050802 | 12 | 277 | 0.0 | 0.0 | 0.00 | 0.41 | 0.00 | 73 | 992.0 |
| 20260510043754 | 13 | 326 | 0.0 | 0.0 | 0.00 | 0.41 | 0.00 | 73 | 991.0 |
| 20260510040745 | 13 | 325 | 0.0 | 0.0 | 0.00 | 0.41 | 0.00 | 81 | 991.0 |
| 20260510033736 | 13 | 325 | 0.0 | 0.0 | 0.00 | 0.41 | 0.00 | 82 | 991.0 |
| 20260510030727 | 13 | 325 | 0.0 | 0.0 | 0.00 | 0.41 | 0.00 | 83 | 991.0 |
| 20260510023717 | 13 | 327 | 0.0 | 0.0 | 0.00 | 0.41 | 0.00 | 84 | 991.0 |
| 20260510020707 | 14 | 327 | 0.0 | 0.0 | 0.00 | 0.41 | 0.00 | 85 | 991.0 |
| 20260510013657 | 14 | 327 | 0.0 | 0.0 | 0.00 | 0.41 | 0.00 | 86 | 991.0 |
| 20260510010649 | 14 | 327 | 0.0 | 0.0 | 0.00 | 0.41 | 0.00 | 86 | 992.0 |
| 20260510003640 | 14 | 326 | 0.0 | 0.0 | 0.00 | 0.41 | 0.00 | 84 | 992.0 |
| 20260510000632 | 15 | 327 | 0.0 | 0.0 | 0.00 | 0.41 | 0.00 | 84 | 992.0 |
| 20260509233622 | 15 | 327 | 0.0 | 0.0 | 0.00 | 0.41 | 0.00 | 83 | 992.0 |
| 20260509224407 | 14 | 327 | 0.0 | 0.0 | 0.00 | 0.41 | 0.00 | 84 | 992.0 |
| 20260509221358 | 15 | 327 | 0.0 | 0.0 | 0.00 | 0.41 | 0.00 | 84 | 992.0 |
| 20260509214348 | 15 | 327 | 0.0 | 0.0 | 0.00 | 0.41 | 0.41 | 86 | 992.0 |
| 20260509211340 | 15 | 326 | 0.0 | 0.0 | 0.00 | 0.41 | 0.41 | 86 | 992.0 |